User: anonymous   Login
Location: Beaurecueil
(43.5122°N, 5.5450°E)
Time: 14:22:13
(UTC+00:00)
Language:

Helios 1A Rocket - Orbit

View from above orbital plane
View from above orbital plane
View from above satellite
View from above satellite

Ground track
Ground track

The orbit data is extracted from the following two-line orbital elements,

1 23608U 95033D   20333.58146399 +.00000343 +00000-0 +35093-4 0  9999
2 23608 098.3148 355.4925 0017431 059.2518 301.0416 14.97463424376008
Epoch (UTC): 28 November 2020 13:57:18
Eccentricity: 0.0017431
inclination: 98.3148°
perigee height: 562 km
apogee height: 587 km
right ascension of ascending node: 355.4925°
argument of perigee: 59.2518°
revolutions per day: 14.97463424
mean anomaly at epoch: 301.0416°
orbit number at epoch: 37600

The dashed part of the orbit path shows where the satellite is in the earth's shadow,  

DLR